Lapse_Rate
6.1 6.1 6.0 6.0 5.9 5.8 5.9 5.9 6.0 6.0 6.0 6.1 6.1 6.0 6.1 6.1 6.1 6.1 6.0 6.1 6.1 6.0 5.9 5.7 5.9 6.0 6.1 6.0 5.8 5.5 5.7 5.9 5.9 6.0 6.1 6.1 5.3 5.3 4.8 5.8 6.0 6.2 6.0
5.9 5.8 5.9 5.9 5.7 5.7 5.8 5.8 5.9 6.0 6.1 6.1 6.1 6.1 6.1 6.2 6.1 5.9 5.7 5.6 5.6 5.6 5.6 5.6 5.8 5.9 6.0 6.0 6.1 5.9 5.8 5.7 6.0 6.0 6.0 5.8 6.0 6.0 5.7 4.9 5.6 6.1 6.1
5.8 5.5 5.3 5.0 5.2 5.4 5.6 5.7 5.6 5.6 5.7 5.7 5.8 5.8 5.9 6.1 6.3 6.2 5.9 5.6 5.4 5.4 5.4 5.4 5.5 5.7 5.8 6.1 6.0 6.0 6.0 5.9 5.8 6.4 5.7 5.6 5.8 6.1 6.5 6.4 6.0 5.9 6.3
5.4 5.5 5.6 5.4 5.3 5.1 5.0 5.1 5.2 5.3 5.3 5.3 5.6 5.6 5.8 6.0 6.1 6.1 5.9 5.5 5.6 5.3 5.1 5.2 5.5 5.8 6.0 6.1 6.2 6.1 6.1 6.0 6.0 6.1 6.4 5.9 5.9 5.9 6.1 6.3 6.5 6.5 6.3
5.2 5.3 5.2 5.2 5.1 5.2 5.4 5.5 5.4 5.4 5.5 5.4 5.6 5.6 5.9 6.0 5.8 5.3 5.1 5.1 5.2 5.4 5.5 5.3 5.4 5.6 5.8 6.1 6.2 6.2 6.3 6.2 6.1 6.1 6.1 6.3 6.2 6.0 5.6 5.9 6.5 6.5 6.5
5.1 5.2 5.2 5.4 5.6 5.6 5.6 5.8 5.6 5.3 5.4 5.3 5.4 5.2 5.9 6.2 5.6 5.1 4.9 4.8 4.9 5.3 5.5 5.6 5.9 5.9 5.7 5.9 6.1 6.1 6.2 6.4 6.4 6.2 6.1 6.1 6.1 6.1 5.8 5.5 5.8 6.0 6.5
5.1 5.2 5.5 5.8 5.6 5.6 5.7 5.6 5.3 5.4 5.4 5.6 5.5 6.0 6.2 6.2 5.6 5.2 5.2 5.2 5.3 5.4 5.5 5.7 6.1 6.2 6.2 6.0 5.9 6.1 6.1 6.1 6.3 6.3 6.2 6.1 6.1 5.7 5.4 5.3 5.2 5.4 6.0
5.4 5.5 5.9 6.0 6.0 5.9 5.8 5.8 5.5 5.5 6.0 6.1 5.8 5.8 6.3 6.1 5.7 5.5 5.7 5.9 5.9 6.1 6.1 6.0 5.9 6.0 6.1 6.1 6.1 6.2 6.3 6.2 6.2 6.1 6.0 6.0 6.0 6.0 5.7 5.3 5.2 5.1 5.1
5.9 6.1 6.2 6.4 6.3 6.1 5.8 5.7 5.5 5.6 5.7 5.9 5.9 6.1 6.1 5.8 5.6 5.6 5.7 5.9 6.0 6.2 6.3 6.2 6.2 6.2 6.3 6.2 6.0 6.1 6.1 6.0 6.0 6.0 5.9 5.8 5.7 5.7 5.8 5.8 5.4 5.2 5.1
6.1 6.4 6.4 6.4 6.2 6.2 5.8 5.5 5.2 5.6 6.0 6.0 6.0 5.9 5.7 5.3 4.8 5.0 5.4 5.5 5.6 5.6 5.8 6.0 6.3 6.5 6.7 6.6 6.5 6.2 5.9 5.8 5.6 5.6 5.6 5.7 5.8 5.7 5.5 5.4 5.5 5.4 5.1
6.4 6.3 6.4 6.3 6.4 6.3 5.9 5.7 5.5 5.8 6.0 6.2 5.9 5.6 5.4 5.1 5.0 4.8 4.8 4.8 5.0 5.4 5.7 5.8 6.0 6.1 6.2 6.3 6.2 6.3 6.0 6.2 5.9 5.7 5.5 5.4 5.4 5.4 5.4 5.2 5.3 5.3 5.2
6.3 6.3 6.3 6.5 6.4 6.3 6.3 6.0 6.0 5.9 6.2 6.3 6.1 5.7 5.6 5.5 5.3 5.0 4.7 4.5 4.4 4.5 4.5 5.0 5.7 6.0 6.1 6.1 6.1 5.9 5.8 5.9 6.0 5.9 5.7 5.5 5.4 5.3 5.2 4.9 4.6 4.8 4.7
6.3 6.4 6.4 6.6 6.4 6.4 6.4 6.2 6.4 6.5 6.4 6.4 6.3 6.0 5.8 5.9 5.8 5.2 4.8 4.5 4.3 4.2 4.5 4.6 4.8 4.9 5.2 5.7 5.9 5.9 5.8 5.7 5.7 5.6 5.5 5.5 5.4 5.3 5.2 5.1 5.0 4.9 4.8
6.5 6.6 6.6 6.5 6.5 6.4 6.3 6.3 6.4 6.5 6.5 6.5 6.4 6.3 6.1 6.1 6.1 5.9 5.2 5.1 5.0 4.8 5.0 4.8 4.7 4.7 4.8 4.9 4.9 4.8 4.8 4.9 5.0 5.1 5.1 5.0 5.0 5.2 5.1 5.1 5.2 5.3 5.3
6.7 6.6 6.6 6.5 6.4 6.5 6.4 6.5 6.5 6.5 6.4 6.4 6.5 6.3 6.2 6.2 6.1 6.0 6.0 5.8 5.6 5.4 5.2 5.1 4.9 4.8 4.8 4.8 4.8 4.7 4.8 4.8 4.8 4.7 4.7 4.7 4.7 4.7 4.6 4.6 4.6 4.6 4.8
6.5 6.5 6.4 6.5 6.5 6.3 6.3 6.4 6.5 6.6 6.5 6.4 6.4 6.4 6.4 6.4 6.4 6.3 6.2 6.2 6.1 6.0 5.9 5.8 5.6 5.4 5.2 5.0 4.9 4.9 4.9 5.0 5.0 4.9 4.8 4.9 4.8 4.8 4.7 4.6 4.5 4.5 4.6
6.7 6.7 6.6 6.5 6.4 6.4 6.4 6.4 6.5 6.5 6.4 6.3 6.4 6.4 6.5 6.5 6.4 6.4 6.4 6.5 6.4 6.4 6.3 6.3 6.2 6.1 6.0 5.8 5.7 5.5 5.4 5.2 5.1 5.1 5.0 4.8 4.8 4.7 4.6 4.5 4.6 4.8 4.9
6.9 6.9 6.7 6.5 6.5 6.4 6.4 6.6 6.5 6.5 6.5 6.4 6.4 6.5 6.5 6.5 6.5 6.4 6.4 6.3 6.3 6.2 6.2 6.2 6.1 6.2 6.1 6.0 6.0 5.8 5.7 5.6 5.5 5.4 5.3 5.2 5.0 5.0 4.9 4.8 4.8 4.8 5.0
6.8 6.7 6.7 6.6 6.5 6.4 6.4 6.5 6.6 6.5 6.4 6.4 6.3 6.4 6.4 6.4 6.3 6.3 6.3 6.2 6.2 6.2 6.2 6.2 6.2 6.1 6.0 5.9 6.0 5.9 5.9 5.7 5.7 5.7 5.5 5.3 5.2 5.1 4.9 5.0 5.2 5.3 5.3
6.9 6.9 6.8 6.7 6.6 6.7 6.6 6.6 6.6 6.6 6.4 6.4 6.4 6.5 6.4 6.4 6.3 6.3 6.1 6.1 6.0 6.0 6.0 5.9 6.0 6.0 6.1 6.0 6.1 6.1 6.1 5.9 5.9 5.9 5.9 5.9 6.0 6.0 5.6 5.4 5.3 5.2 5.2
6.8 6.8 6.8 6.8 6.8 6.8 6.7 6.7 6.6 6.7 6.6 6.6 6.6 6.6 6.5 6.4 6.4 6.4 6.4 6.3 6.3 6.2 6.1 6.0 6.0 5.9 5.9 5.7 5.8 5.8 5.7 5.7 5.6 5.4 5.2 5.1 5.0 4.9 5.0 5.2 5.4 5.4 5.1
6.6 6.7 6.7 6.7 6.7 6.7 6.8 6.7 6.7 6.8 6.8 6.7 6.6 6.6 6.6 6.6 6.6 6.5 6.4 6.3 6.2 6.1 6.0 5.8 5.6 5.6 5.6 5.7 5.7 5.7 5.6 5.4 5.2 5.1 5.0 4.9 4.8 4.8 4.9 5.1 5.3 5.5 5.6
6.6 6.7 6.9 6.9 6.9 6.9 6.9 6.9 6.5 6.8 6.8 6.6 6.6 6.6 6.6 6.5 6.5 6.5 6.4 6.3 6.2 6.0 5.8 5.7 5.6 5.7 5.8 5.8 5.5 5.3 5.3 5.2 5.0 4.9 4.8 4.7 4.7 4.6 4.5 4.6 4.9 5.0 5.3
6.5 6.6 6.8 7.0 6.9 6.6 6.7 6.8 6.6 6.6 6.7 6.5 6.4 6.5 6.5 6.5 6.5 6.5 6.4 6.3 6.3 6.1 5.8 5.6 5.6 5.5 5.5 5.4 5.2 5.2 5.1 4.9 4.7 4.6 4.5 4.4 4.3 4.3 4.3 4.4 4.5 4.7 4.9
6.4 6.5 6.7 6.8 6.7 6.6 6.7 6.6 6.4 6.3 6.5 6.5 6.3 6.2 6.4 6.4 6.2 6.1 6.2 6.2 5.9 5.7 5.4 5.5 5.5 5.4 5.4 5.1 5.0 4.9 4.7 4.7 4.6 4.5 4.3 4.2 4.2 4.1 4.1 4.3 4.6 5.0 5.3
6.3 6.5 6.4 6.5 6.5 6.4 6.4 6.2 6.2 6.5 6.5 6.6 6.3 6.1 6.2 6.0 5.8 5.8 5.8 5.8 5.6 5.5 5.1 5.1 5.2 5.3 5.3 4.9 4.8 4.7 4.5 4.4 4.3 4.3 4.3 4.1 4.2 4.2 4.3 4.5 4.9 5.4 5.7
Wind_Speed
3 8 9 9 9 6 8 9 10 10 7 7 7 5 6 8 8 10 13 15 13 13 11 9 9 10 8 10 11 9 9 7 7 5 8 6 7 7 8 11 12 10 15
8 8 9 8 8 9 10 10 9 11 8 6 6 5 7 8 9 12 15 16 17 16 14 10 9 9 8 11 12 11 9 7 6 4 3 4 3 7 10 10 12 13 10
9 10 10 9 8 9 10 10 11 11 10 11 7 7 7 5 5 7 8 9 14 14 14 14 9 9 8 7 10 11 13 9 8 11 6 2 4 3 5 13 11 14 9
6 6 9 8 10 10 9 10 11 12 11 12 10 12 9 10 8 9 9 9 15 15 14 13 11 10 8 9 9 9 10 10 10 6 8 10 3 3 3 4 4 6 9
8 9 9 8 10 9 9 9 10 10 11 10 11 10 11 10 7 9 12 12 11 14 14 14 10 10 8 9 10 10 10 9 9 9 6 7 8 7 7 8 6 2 5
9 8 8 8 10 9 8 8 11 12 12 12 14 14 14 12 9 8 8 9 8 8 10 12 10 10 10 10 9 10 11 10 10 9 10 8 4 5 4 5 7 9 8
8 8 8 9 10 11 11 10 12 14 14 13 13 12 13 13 13 12 8 9 7 5 9 10 9 8 10 10 9 9 10 9 9 11 9 9 9 9 9 8 7 6 3
6 7 7 8 8 10 11 11 14 14 13 12 11 11 11 7 8 9 8 8 7 7 7 6 6 9 9 8 8 7 8 10 9 13 11 8 9 8 9 10 9 9 9
7 7 7 7 7 8 11 12 12 12 12 11 10 10 9 8 8 12 10 7 8 6 7 6 8 8 8 8 8 7 9 10 10 10 11 9 8 8 8 8 8 9 11
7 7 7 6 5 7 8 11 10 11 11 10 9 8 10 8 8 8 9 8 9 8 8 8 6 7 7 7 7 7 9 10 8 7 10 9 7 8 7 8 8 8 10
8 7 6 5 5 7 7 9 9 10 10 9 8 9 7 8 5 5 7 6 7 7 7 7 7 7 7 7 6 6 8 8 9 8 9 9 9 7 6 6 7 8 8
9 6 5 4 5 7 7 7 9 8 8 9 8 8 8 9 8 8 9 8 6 5 5 5 5 5 5 5 6 6 5 6 6 6 4 6 4 7 6 6 9 9 10
7 5 4 5 5 6 6 7 7 8 8 8 8 9 9 10 10 10 10 10 8 8 8 7 6 5 5 4 4 5 6 5 6 6 6 7 7 8 7 8 8 8 7
6 5 5 5 5 5 5 6 6 6 7 7 7 8 8 8 8 9 9 9 8 8 8 8 8 8 7 8 7 6 6 6 6 7 7 8 8 9 9 8 10 9 9
7 7 6 6 6 5 5 5 5 4 5 5 5 6 6 6 6 7 8 8 8 7 7 7 6 6 6 6 7 6 6 6 6 6 6 7 7 7 7 6 9 8 7
8 8 7 6 6 6 5 4 5 4 3 4 5 6 6 6 6 7 7 7 6 6 6 7 6 7 5 8 8 5 3 2 3 5 6 6 6 6 7 5 11 7 4
9 7 8 7 6 6 5 5 4 3 3 2 3 3 4 5 6 6 6 6 6 5 6 6 5 5 6 10 9 8 6 7 7 6 6 5 5 7 2 7 10 12 13
8 7 6 6 6 4 4 3 4 4 4 4 3 2 3 3 3 4 4 3 3 4 4 4 4 4 5 8 6 8 7 7 8 8 7 6 6 7 4 7 8 9 11
7 6 5 5 5 5 5 4 4 5 4 4 3 2 2 3 2 2 3 2 2 3 3 3 5 5 7 10 7 4 5 7 7 7 9 7 7 8 8 7 7 6 5
5 6 6 4 5 5 5 5 6 5 6 5 4 3 3 3 3 3 2 1 1 1 2 2 3 5 5 9 7 2 3 5 5 5 6 11 9 11 9 5 5 5 3
6 5 5 7 9 5 6 7 7 9 7 5 5 5 4 5 4 3 2 2 2 2 2 2 2 3 4 5 7 6 2 3 4 3 4 6 11 11 10 10 6 4 3
7 7 6 8 8 7 7 9 9 10 5 5 5 6 5 4 3 4 3 3 2 3 3 3 3 2 3 6 3 5 4 3 3 3 3 5 10 11 11 9 9 9 7
6 5 7 8 7 7 8 9 12 5 5 5 7 6 5 5 5 4 4 2 2 3 3 3 3 3 2 2 4 2 2 3 3 3 5 7 7 8 8 11 10 8 4
7 5 6 7 10 6 8 12 10 5 5 7 8 5 6 6 5 4 4 3 4 4 4 4 4 3 3 3 2 2 0 3 2 5 3 4 5 5 5 5 5 4 4
6 4 6 7 10 7 7 8 10 5 7 7 8 6 5 6 5 5 5 5 6 6 4 4 4 3 4 4 7 6 4 3 4 4 1 2 1 1 1 2 2 3 3
6 7 7 7 9 7 8 8 7 7 7 8 7 7 6 5 5 4 5 11 13 11 13 13 8 4 10 8 8 9 9 9 11 3 3 2 3 3 2 1 1 2 2
Wind_Direction
288 307 319 324 327 332 333 336 331 332 328 326 323 317 310 306 298 292 284 280 277 277 269 263 265 261 256 253 252 256 247 221 236 244 252 245 230 222 244 251 248 237 221
310 320 323 326 324 317 323 327 322 317 318 310 298 285 293 289 286 285 279 274 273 268 262 255 256 254 253 256 255 251 251 248 197 232 223 261 214 234 226 226 243 233 218
299 316 323 318 315 316 316 313 309 307 307 302 299 293 282 278 283 281 278 268 262 258 256 254 247 247 246 244 250 253 249 250 231 210 233 212 223 177 214 233 231 240 225
293 288 305 315 323 316 306 303 303 305 306 304 301 295 288 288 285 279 277 272 268 261 255 251 249 247 244 243 244 247 252 249 246 226 227 237 268 222 232 191 230 245 245
298 302 305 306 311 309 307 304 299 298 298 300 296 291 287 283 283 282 278 275 268 263 259 254 250 245 240 238 236 244 243 248 252 250 227 234 240 248 244 267 247 216 237
297 298 301 310 315 311 312 316 316 317 315 313 306 303 287 287 287 271 284 282 269 263 251 251 248 248 243 238 237 237 243 247 251 256 255 240 221 208 219 246 264 261 263
293 302 309 315 312 319 319 325 327 317 317 312 312 295 293 279 284 280 275 280 272 253 252 251 250 244 241 239 239 240 239 237 241 245 249 253 251 246 242 244 248 258 232
299 289 290 293 303 313 311 323 329 310 307 297 303 300 291 277 280 279 282 278 268 266 270 262 251 255 246 237 238 243 245 243 234 238 237 245 251 249 248 249 257 267 262
286 289 288 280 296 307 317 326 303 302 302 308 300 297 294 288 280 285 286 275 271 277 269 258 271 271 268 258 247 242 246 246 240 237 233 235 237 234 240 243 241 251 266
279 276 274 284 291 309 315 305 305 303 305 305 314 314 303 292 286 280 283 284 290 289 286 276 259 266 265 266 265 260 252 250 251 248 246 247 247 243 237 232 234 237 252
283 281 268 272 300 301 299 304 315 309 316 326 332 325 321 332 315 315 312 297 302 307 302 295 290 277 267 258 249 264 263 256 252 256 253 257 254 251 242 239 244 247 244
268 261 258 278 282 288 304 320 315 315 334 337 340 341 346 347 352 353 356 353 331 321 317 315 304 299 289 285 262 259 251 235 237 247 240 254 258 257 254 250 246 244 249
284 283 266 253 260 280 302 308 319 330 343 350 354 0 359 359 1 358 360 2 1 15 17 9 0 353 345 338 329 301 299 289 278 279 269 267 276 272 268 264 267 267 267
280 262 252 252 254 260 283 301 313 331 342 2 7 10 6 4 3 3 7 10 7 13 15 21 27 24 43 32 11 354 341 330 320 315 304 297 288 282 282 274 269 271 272
275 258 250 237 246 248 263 280 290 319 340 6 4 2 351 3 9 13 14 17 21 20 21 26 31 30 36 16 357 343 332 328 331 334 332 327 315 312 299 290 287 286 280
259 253 245 233 238 244 248 262 277 302 330 357 358 350 353 11 17 17 18 22 22 25 30 31 35 38 28 359 5 360 341 334 323 341 343 337 329 339 336 20 51 35 316
253 255 241 228 226 227 228 246 267 289 298 307 327 355 2 20 21 23 26 25 21 24 31 27 28 36 16 12 19 31 56 59 45 32 21 23 15 5 42 60 53 48 43
252 245 234 231 230 221 219 241 255 266 270 268 283 336 2 11 11 19 27 16 12 30 33 33 31 39 19 20 50 83 94 88 71 55 44 47 29 28 51 93 82 63 52
266 253 232 215 215 212 215 219 258 260 268 271 283 301 318 327 341 354 340 339 351 20 34 22 23 26 18 20 36 79 91 91 80 59 46 48 50 50 91 110 104 94 82
251 250 228 220 220 225 201 209 239 246 250 240 236 242 249 266 281 281 286 276 299 334 0 27 20 23 17 16 29 59 116 108 102 77 62 53 60 60 61 88 113 107 71
262 239 219 224 227 208 190 220 231 239 236 223 222 233 230 234 239 263 243 253 266 272 302 316 334 351 347 1 28 36 68 109 102 80 58 50 49 53 57 67 70 93 111
276 249 239 238 234 209 200 229 235 240 216 216 226 236 236 237 232 237 250 256 274 297 301 313 321 327 337 336 22 34 52 81 106 100 81 70 63 62 62 63 71 78 79
266 249 237 254 252 225 210 234 247 219 214 216 231 233 232 237 239 243 253 260 236 251 272 263 269 274 280 286 319 111 84 91 90 107 106 94 80 73 59 60 59 50 49
266 257 260 260 269 241 228 234 256 214 208 229 241 236 237 246 241 239 236 238 242 239 237 240 248 253 257 256 246 255 352 102 100 111 102 105 91 69 62 51 44 49 51
264 241 253 258 264 264 248 238 246 197 219 234 247 239 232 238 253 239 234 233 238 225 234 234 234 234 251 241 218 208 207 197 190 152 176 208 193 144 109 85 71 75 69
270 272 258 252 262 263 261 251 231 191 210 231 242 237 233 239 239 244 263 243 245 245 241 244 231 236 240 241 229 223 215 206 192 198 217 229 219 212 197 183 109 70 77